Location: Roanoke
(37.2710°N, 79.9420°W)
Time: 09:31:48
(UTC-04:00)

Cosmos 1441 Rocket - Visible Passes

Search period start: 29 July 2015 00:00
Search period end: 08 August 2015 00:00
Orbit: 502 x 550 km, 81.1° (Epoch: 28 July)

Date Brightness Start Highest point End Pass type
(mag) Time Alt. Az. Time Alt. Az. Time Alt. Az.
29 Jul 4.9 21:52:55 10° SW 21:56:28 34° WNW 21:59:59 10° N visible
30 Jul 4.8 21:40:58 10° SSW 21:44:35 37° WNW 21:48:09 10° N visible
31 Jul 4.6 21:29:01 10° SSW 21:32:41 41° WNW 21:36:20 10° N visible
01 Aug 4.4 21:17:06 10° SSW 21:20:48 46° WNW 21:24:29 10° N visible
02 Aug 4.2 21:05:10 10° SSW 21:08:55 51° W 21:12:37 10° N visible
03 Aug 4.0 20:53:15 10° SSW 20:57:02 57° W 21:00:46 10° N visible
